Wind_Speed
23 24 24 25 25 25 25 25 22 23 26 32 29 30 34 34 35 36 34 37 38 44
26 26 26 24 24 26 27 28 28 26 26 29 29 33 32 36 34 34 37 37 36 32
30 31 29 27 25 27 31 29 30 30 26 28 29 32 32 34 31 29 32 35 39 35
27 28 27 24 24 26 29 31 32 30 27 28 29 31 29 31 31 29 29 33 40 37
24 18 13 18 21 24 25 23 18 20 24 25 27 29 30 30 28 29 29 33 33 33
8 11 14 18 21 18 16 13 15 18 19 27 29 28 28 25 24 27 28 28 39 39
11 11 16 17 15 14 13 12 14 14 24 28 25 27 26 27 24 25 27 23 26 23
11 13 15 18 14 17 8 10 14 9 12 21 21 25 26 21 20 22 23 22 20 18
11 13 13 17 14 12 7 4 6 3 10 21 25 23 26 20 19 17 18 15 17 15
11 13 13 14 11 9 5 2 8 10 20 20 22 22 21 19 18 20 18 20 20 21
10 11 11 12 11 10 6 6 5 8 10 16 18 15 21 24 22 20 18 18 17 15
8 8 8 10 10 11 8 10 14 13 16 21 18 19 20 22 21 20 18 18 19 17
6 5 6 9 10 12 13 18 19 23 24 24 24 19 19 14 17 20 22 22 19 17
6 6 7 8 9 10 13 18 20 22 23 21 20 19 14 13 15 18 22 21 21 20
Wind_Direction
289 292 290 286 283 284 283 286 282 277 256 246 244 246 240 231 233 228 234 234 236 225
295 295 285 284 283 283 284 283 278 271 264 251 244 240 242 231 231 228 231 237 238 237
289 288 287 287 278 276 283 280 274 270 266 253 240 237 240 230 231 233 230 234 229 237
296 291 290 282 279 286 287 286 270 264 265 251 232 232 228 226 225 227 231 230 239 227
311 310 306 291 291 294 292 287 273 264 259 236 230 230 221 221 223 229 228 224 226 222
326 316 312 307 309 296 288 281 278 265 252 238 224 223 213 215 220 225 228 239 227 219
333 333 340 329 315 311 284 293 258 271 255 229 225 207 201 206 213 220 213 207 207 202
346 336 334 343 338 319 305 291 269 218 194 209 212 203 197 198 200 210 207 201 193 192
347 348 350 351 352 354 16 188 282 228 203 220 193 185 200 188 177 191 191 187 190 186
356 355 355 355 360 3 13 86 178 195 197 196 191 175 197 178 174 175 178 178 180 175
3 8 3 19 33 42 52 97 104 155 184 166 159 173 189 168 164 167 165 166 161 165
24 21 28 43 55 61 85 105 115 120 131 142 154 158 153 149 151 152 147 144 143 144
41 48 69 71 82 90 101 107 112 121 127 127 125 133 135 136 140 138 144 149 152 154
80 83 90 92 99 107 118 123 123 123 123 122 120 125 135 150 149 149 146 148 147 144
Height
1457 1455 1452 1450 1448 1446 1446 1445 1446 1445 1446 1448 1450 1452 1455 1458 1462 1466 1470 1474 1477 1481
1451 1449 1446 1444 1442 1440 1440 1438 1437 1438 1438 1439 1442 1445 1448 1451 1455 1460 1464 1469 1472 1476
1444 1441 1438 1436 1435 1434 1432 1431 1430 1430 1430 1431 1434 1438 1441 1446 1450 1455 1459 1463 1466 1470
1435 1432 1430 1428 1428 1426 1423 1420 1419 1420 1422 1423 1426 1431 1435 1439 1445 1450 1453 1457 1460 1464
1429 1426 1425 1424 1421 1419 1415 1412 1410 1412 1414 1416 1420 1425 1429 1435 1441 1444 1449 1451 1455 1458
1426 1424 1422 1419 1414 1411 1409 1408 1407 1407 1409 1411 1415 1420 1426 1432 1437 1440 1445 1447 1450 1453
1425 1423 1419 1415 1410 1407 1405 1404 1403 1402 1402 1403 1411 1416 1423 1428 1434 1438 1440 1444 1448 1453
1424 1422 1418 1414 1409 1405 1402 1402 1401 1402 1403 1403 1410 1417 1422 1427 1432 1436 1440 1443 1448 1451
1424 1421 1417 1414 1410 1406 1403 1402 1403 1404 1405 1406 1410 1417 1418 1425 1430 1436 1440 1444 1448 1452
1425 1421 1419 1414 1411 1408 1406 1405 1404 1404 1406 1409 1412 1415 1421 1426 1430 1436 1440 1443 1448 1451
1425 1423 1421 1417 1413 1411 1409 1407 1407 1408 1410 1412 1416 1420 1422 1428 1433 1437 1442 1446 1449 1454
1427 1424 1423 1419 1417 1415 1413 1412 1412 1412 1414 1418 1420 1425 1428 1432 1436 1440 1444 1448 1453 1457
1429 1427 1426 1423 1422 1421 1419 1418 1418 1420 1421 1424 1428 1433 1436 1439 1441 1443 1446 1451 1456 1461
1430 1429 1429 1428 1427 1426 1425 1425 1426 1427 1430 1433 1435 1437 1441 1444 1445 1447 1450 1455 1459 1463